Time,TemperatureF,DewpointF,PressureIn,WindDirection,WindDirectionDegrees,WindSpeedMPH,WindSpeedGustMPH,Humidity,HourlyPrecipIn,Conditions,Clouds,dailyrainin,SolarRadiationWatts/m^2,SoftwareType,DateUTC
2013-06-13 00:22:00,50.0,47.0,-100.00,NNE,33,0.0,0.0,88,0.00,,,0.00,1.000000,,2013-06-13 04:22:00,
2013-06-13 00:32:00,50.0,47.0,-100.00,NNE,33,0.0,0.0,88,0.00,,,0.00,1.000000,,2013-06-13 04:32:00,
2013-06-13 00:43:00,50.0,47.0,-100.00,NNE,33,0.0,0.0,88,0.00,,,0.00,1.000000,,2013-06-13 04:43:00,
2013-06-13 00:53:00,50.0,47.0,-100.00,NNE,33,0.0,0.0,88,0.00,,,0.00,1.000000,,2013-06-13 04:53:00,
2013-06-13 01:24:00,49.0,46.0,-100.00,North,10,0.0,2.0,90,0.00,,,0.00,1.000000,,2013-06-13 05:24:00,
2013-06-13 01:33:00,49.0,46.0,-100.00,North,10,0.0,2.0,90,0.00,,,0.00,1.000000,,2013-06-13 05:33:00,
2013-06-13 01:43:00,49.0,46.0,-100.00,North,10,0.0,2.0,90,0.00,,,0.00,1.000000,,2013-06-13 05:43:00,
2013-06-13 01:53:00,49.0,46.0,-100.00,North,10,0.0,2.0,90,0.00,,,0.00,1.000000,,2013-06-13 05:53:00,
2013-06-13 02:22:00,50.0,48.0,-100.00,North,2,2.0,4.0,93,0.00,,,0.00,1.000000,,2013-06-13 06:22:00,
2013-06-13 02:33:00,50.0,48.0,-100.00,North,2,2.0,4.0,93,0.00,,,0.00,1.000000,,2013-06-13 06:33:00,
2013-06-13 02:44:00,50.0,48.0,-100.00,North,2,2.0,4.0,93,0.00,,,0.00,1.000000,,2013-06-13 06:44:00,
2013-06-13 02:52:00,50.0,48.0,-100.00,North,2,2.0,4.0,93,0.00,,,0.00,1.000000,,2013-06-13 06:52:00,
2013-06-13 03:22:00,52.0,48.0,-100.00,North,359,3.0,6.0,85,0.00,,,0.00,1.000000,,2013-06-13 07:22:00,
2013-06-13 03:33:00,52.0,48.0,-100.00,North,359,3.0,6.0,85,0.00,,,0.00,1.000000,,2013-06-13 07:33:00,
2013-06-13 03:42:00,52.0,48.0,-100.00,North,359,3.0,6.0,85,0.00,,,0.00,1.000000,,2013-06-13 07:42:00,
2013-06-13 03:52:00,52.0,48.0,-100.00,North,359,3.0,6.0,85,0.00,,,0.00,1.000000,,2013-06-13 07:52:00,
2013-06-13 04:22:00,53.0,50.0,-100.00,North,354,3.0,6.0,89,0.00,,,0.00,1.000000,,2013-06-13 08:22:00,
2013-06-13 04:32:00,53.0,50.0,-100.00,North,354,3.0,6.0,89,0.00,,,0.00,1.000000,,2013-06-13 08:32:00,
2013-06-13 04:43:00,53.0,50.0,-100.00,North,354,3.0,6.0,89,0.00,,,0.00,1.000000,,2013-06-13 08:43:00,
2013-06-13 04:52:00,53.0,50.0,-100.00,North,354,3.0,6.0,89,0.00,,,0.00,1.000000,,2013-06-13 08:52:00,
2013-06-13 05:22:00,52.0,49.0,-100.00,NNE,16,3.0,7.0,89,0.00,,,0.00,1.000000,,2013-06-13 09:22:00,
2013-06-13 05:32:00,52.0,49.0,-100.00,NNE,16,3.0,7.0,89,0.00,,,0.00,1.000000,,2013-06-13 09:32:00,
2013-06-13 05:42:00,52.0,49.0,-100.00,NNE,16,3.0,7.0,89,0.00,,,0.00,1.000000,,2013-06-13 09:42:00,
2013-06-13 05:52:00,52.0,49.0,-100.00,NNE,16,3.0,7.0,89,0.00,,,0.00,1.000000,,2013-06-13 09:52:00,
2013-06-13 06:22:00,51.0,49.0,-100.00,NW,326,3.0,5.0,94,0.00,,,0.00,1.000000,,2013-06-13 10:22:00,
2013-06-13 06:33:00,51.0,49.0,-100.00,NW,326,3.0,5.0,94,0.00,,,0.00,1.000000,,2013-06-13 10:33:00,
2013-06-13 06:43:00,51.0,49.0,-100.00,NW,326,3.0,5.0,94,0.00,,,0.00,1.000000,,2013-06-13 10:43:00,
2013-06-13 06:53:00,51.0,49.0,-100.00,NW,326,3.0,5.0,94,0.00,,,0.00,1.000000,,2013-06-13 10:53:00,
2013-06-13 07:23:00,52.0,49.0,-100.00,NNW,337,3.0,9.0,90,0.00,,,0.00,9.000000,,2013-06-13 11:23:00,
2013-06-13 07:32:00,52.0,49.0,-100.00,NNW,337,3.0,9.0,90,0.00,,,0.00,9.000000,,2013-06-13 11:32:00,
2013-06-13 07:42:00,52.0,49.0,-100.00,NNW,337,3.0,9.0,90,0.00,,,0.00,9.000000,,2013-06-13 11:42:00,
2013-06-13 07:52:00,52.0,49.0,-100.00,NNW,337,3.0,9.0,90,0.00,,,0.00,9.000000,,2013-06-13 11:52:00,
2013-06-13 08:22:00,52.0,49.0,-100.00,NW,322,3.0,6.0,88,0.00,,,0.00,60.000000,,2013-06-13 12:22:00,
2013-06-13 08:35:00,52.0,49.0,-100.00,NW,322,3.0,6.0,88,0.00,,,0.00,60.000000,,2013-06-13 12:35:00,
2013-06-13 08:42:00,52.0,49.0,-100.00,NW,322,3.0,6.0,88,0.00,,,0.00,60.000000,,2013-06-13 12:42:00,
2013-06-13 08:52:00,52.0,49.0,-100.00,NW,322,3.0,6.0,88,0.00,,,0.00,60.000000,,2013-06-13 12:52:00,
2013-06-13 09:22:00,55.0,50.0,-100.00,NNW,348,4.0,7.0,83,0.00,,,0.00,146.000000,,2013-06-13 13:22:00,
2013-06-13 09:32:00,55.0,50.0,-100.00,NNW,348,4.0,7.0,83,0.00,,,0.00,146.000000,,2013-06-13 13:32:00,
2013-06-13 09:43:00,55.0,50.0,-100.00,NNW,348,4.0,7.0,83,0.00,,,0.00,146.000000,,2013-06-13 13:43:00,
2013-06-13 09:53:00,55.0,50.0,-100.00,NNW,348,4.0,7.0,83,0.00,,,0.00,146.000000,,2013-06-13 13:53:00,
2013-06-13 10:22:00,60.0,49.0,-100.00,North,354,6.0,11.0,66,0.00,,,-99.99,341.000000,,2013-06-13 14:22:00,
2013-06-13 10:33:00,60.0,49.0,-100.00,North,354,6.0,11.0,66,0.00,,,-99.99,341.000000,,2013-06-13 14:33:00,
2013-06-13 10:43:00,60.0,49.0,-100.00,North,354,6.0,11.0,66,0.00,,,-99.99,341.000000,,2013-06-13 14:43:00,
2013-06-13 10:53:00,60.0,49.0,-100.00,North,354,6.0,11.0,66,0.00,,,-99.99,341.000000,,2013-06-13 14:53:00,
2013-06-13 11:22:00,61.0,47.0,-100.00,North,359,6.0,14.0,59,0.00,,,0.00,522.000000,,2013-06-13 15:22:00,
2013-06-13 11:33:00,61.0,47.0,-100.00,North,359,6.0,14.0,59,0.00,,,0.00,522.000000,,2013-06-13 15:33:00,
2013-06-13 11:43:00,61.0,47.0,-100.00,North,359,6.0,14.0,59,0.00,,,0.00,522.000000,,2013-06-13 15:43:00,
2013-06-13 11:53:00,61.0,47.0,-100.00,North,359,6.0,14.0,59,0.00,,,0.00,522.000000,,2013-06-13 15:53:00,
2013-06-13 12:22:00,62.0,46.0,-100.00,NNE,27,5.0,15.0,55,0.00,,,0.00,538.000000,,2013-06-13 16:22:00,
2013-06-13 12:33:00,62.0,46.0,-100.00,NNE,27,5.0,15.0,55,0.00,,,0.00,538.000000,,2013-06-13 16:33:00,
2013-06-13 12:43:00,62.0,46.0,-100.00,NNE,27,5.0,15.0,55,0.00,,,0.00,538.000000,,2013-06-13 16:43:00,
2013-06-13 12:53:00,62.0,46.0,-100.00,NNE,27,5.0,15.0,55,0.00,,,0.00,538.000000,,2013-06-13 16:53:00,
2013-06-13 13:24:00,61.0,45.0,-100.00,North,7,6.0,11.0,56,0.00,,,0.00,358.000000,,2013-06-13 17:24:00,
2013-06-13 13:33:00,61.0,45.0,-100.00,North,7,6.0,11.0,56,0.00,,,0.00,358.000000,,2013-06-13 17:33:00,
2013-06-13 13:43:00,61.0,45.0,-100.00,North,7,6.0,11.0,56,0.00,,,0.00,358.000000,,2013-06-13 17:43:00,
2013-06-13 13:53:00,61.0,45.0,-100.00,North,7,6.0,11.0,56,0.00,,,0.00,358.000000,,2013-06-13 17:53:00,
2013-06-13 14:22:00,62.0,47.0,-100.00,NNW,346,6.0,12.0,59,0.00,,,0.00,418.000000,,2013-06-13 18:22:00,
2013-06-13 14:33:00,62.0,47.0,-100.00,NNW,346,6.0,12.0,59,0.00,,,0.00,418.000000,,2013-06-13 18:33:00,
2013-06-13 14:43:00,62.0,47.0,-100.00,NNW,346,6.0,12.0,59,0.00,,,0.00,418.000000,,2013-06-13 18:43:00,
2013-06-13 14:52:00,62.0,47.0,-100.00,NNW,346,6.0,12.0,59,0.00,,,0.00,418.000000,,2013-06-13 18:52:00,
2013-06-13 15:22:00,64.0,49.0,-100.00,NNE,15,6.0,11.0,58,0.00,,,-99.99,564.000000,,2013-06-13 19:22:00,
2013-06-13 15:33:00,64.0,49.0,-100.00,NNE,15,6.0,11.0,58,0.00,,,-99.99,564.000000,,2013-06-13 19:33:00,
2013-06-13 15:43:00,64.0,49.0,-100.00,NNE,15,6.0,11.0,58,0.00,,,-99.99,564.000000,,2013-06-13 19:43:00,
2013-06-13 15:53:00,64.0,49.0,-100.00,NNE,15,6.0,11.0,58,0.00,,,-99.99,564.000000,,2013-06-13 19:53:00,
2013-06-13 16:22:00,65.0,49.0,-100.00,NNE,12,5.0,17.0,56,0.00,,,0.00,633.000000,,2013-06-13 20:22:00,
2013-06-13 16:33:00,65.0,49.0,-100.00,NNE,12,5.0,17.0,56,0.00,,,0.00,633.000000,,2013-06-13 20:33:00,
2013-06-13 16:44:00,65.0,49.0,-100.00,NNE,12,5.0,17.0,56,0.00,,,0.00,633.000000,,2013-06-13 20:44:00,
2013-06-13 16:53:00,65.0,49.0,-100.00,NNE,12,5.0,17.0,56,0.00,,,0.00,633.000000,,2013-06-13 20:53:00,
2013-06-13 17:22:00,68.0,50.0,-100.00,NNE,13,5.0,13.0,52,0.00,,,0.00,679.000000,,2013-06-13 21:22:00,
2013-06-13 17:34:00,68.0,50.0,-100.00,NNE,13,5.0,13.0,52,0.00,,,0.00,679.000000,,2013-06-13 21:34:00,
2013-06-13 17:43:00,68.0,50.0,-100.00,NNE,13,5.0,13.0,52,0.00,,,0.00,679.000000,,2013-06-13 21:43:00,
2013-06-13 17:52:00,68.0,50.0,-100.00,NNE,13,5.0,13.0,52,0.00,,,0.00,679.000000,,2013-06-13 21:52:00,
2013-06-13 18:22:00,67.0,51.0,-100.00,ENE,57,5.0,14.0,56,0.00,,,0.00,567.000000,,2013-06-13 22:22:00,
2013-06-13 18:33:00,67.0,51.0,-100.00,ENE,57,5.0,14.0,56,0.00,,,0.00,567.000000,,2013-06-13 22:33:00,
2013-06-13 18:43:00,67.0,51.0,-100.00,ENE,57,5.0,14.0,56,0.00,,,0.00,567.000000,,2013-06-13 22:43:00,
2013-06-13 18:52:00,67.0,51.0,-100.00,ENE,57,5.0,14.0,56,0.00,,,0.00,567.000000,,2013-06-13 22:52:00,
2013-06-13 19:22:00,66.0,50.0,-100.00,ENE,65,4.0,9.0,56,0.00,,,0.00,353.000000,,2013-06-13 23:22:00,
2013-06-13 19:32:00,66.0,50.0,-100.00,ENE,65,4.0,9.0,56,0.00,,,0.00,353.000000,,2013-06-13 23:32:00,
2013-06-13 19:43:00,66.0,50.0,-100.00,ENE,65,4.0,9.0,56,0.00,,,0.00,353.000000,,2013-06-13 23:43:00,
2013-06-13 19:52:00,66.0,50.0,-100.00,ENE,65,4.0,9.0,56,0.00,,,0.00,353.000000,,2013-06-13 23:52:00,
2013-06-13 20:22:00,67.0,51.0,-100.00,NNE,33,3.0,11.0,56,0.00,,,0.00,287.000000,,2013-06-14 00:22:00,
2013-06-13 20:34:00,67.0,51.0,-100.00,NNE,33,3.0,11.0,56,0.00,,,0.00,287.000000,,2013-06-14 00:34:00,
2013-06-13 20:43:00,67.0,51.0,-100.00,NNE,33,3.0,11.0,56,0.00,,,0.00,287.000000,,2013-06-14 00:43:00,
2013-06-13 20:53:00,67.0,51.0,-100.00,NNE,33,3.0,11.0,56,0.00,,,0.00,287.000000,,2013-06-14 00:53:00,
2013-06-13 21:22:00,63.0,49.0,-100.00,NNE,29,3.0,9.0,60,0.00,,,0.00,149.000000,,2013-06-14 01:22:00,
2013-06-13 21:32:00,63.0,49.0,-100.00,NNE,29,3.0,9.0,60,0.00,,,0.00,149.000000,,2013-06-14 01:32:00,
2013-06-13 21:43:00,63.0,49.0,-100.00,NNE,29,3.0,9.0,60,0.00,,,0.00,149.000000,,2013-06-14 01:43:00,
2013-06-13 21:52:00,63.0,49.0,-100.00,NNE,29,3.0,9.0,60,0.00,,,0.00,149.000000,,2013-06-14 01:52:00,
2013-06-13 22:32:00,53.0,48.0,-100.00,North,2,0.0,5.0,83,0.00,,,0.00,16.000000,,2013-06-14 02:32:00,
2013-06-13 22:43:00,53.0,48.0,-100.00,North,2,0.0,5.0,83,0.00,,,0.00,16.000000,,2013-06-14 02:43:00,
2013-06-13 22:52:00,53.0,48.0,-100.00,North,2,0.0,5.0,83,0.00,,,0.00,16.000000,,2013-06-14 02:52:00,
2013-06-13 23:22:00,47.0,45.0,-100.00,NNE,30,0.0,0.0,94,0.00,,,0.00,1.000000,,2013-06-14 03:22:00,
2013-06-13 23:34:00,47.0,45.0,-100.00,NNE,30,0.0,0.0,94,0.00,,,0.00,1.000000,,2013-06-14 03:34:00,
2013-06-13 23:43:00,47.0,45.0,-100.00,NNE,30,0.0,0.0,94,0.00,,,0.00,1.000000,,2013-06-14 03:43:00,
2013-06-13 23:53:00,47.0,45.0,-100.00,NNE,30,0.0,0.0,94,0.00,,,0.00,1.000000,,2013-06-14 03:53:00,